Regional Weather Roundup
Issued by NWS

Home | Current Version | Previous Version | Text Only | Print | Product List | Glossary On
Versions: 1 2 3 4 5 6 7 8 9 10 11 12 13 14 15 16 17 18 19 20 21 22 23 24 25 26 27 28 29 30 31 32 33 34 35 36 37 38 39 40 41 42 43 44 45 46 47 48 49 50
000
ASCA44 KEWX 301420
RWRMX

LATIN AMERICA AND CARIBBEAN REGIONAL WEATHER ROUNDUP
NATIONAL WEATHER SERVICE AUSTIN/SAN ANTONIO TX
900 AM CDT THU JUL 30 2015

NOTE: "FAIR" INDICATED FEW OR NO CLOUDS BELOW 12,000 FEET WITH NO
SIGNIFICANT WEATHER AND/OR OBSTRUCTIONS TO VISIBILITY.

BAJA CALIFORNIA

CITY           SKY/WX    TMP DP  RH WIND       PRES   REMARKS
MEXICALI       MOSUNNY   82  70  65 S3        29.91
TIJUANA        MOSUNNY   68  63  83 CALM      30.02R

NORTHWESTERN MEXICO

CITY           SKY/WX    TMP DP  RH WIND       PRES   REMARKS
CULIACAN       PTSUNNY   84  75  74 CALM      29.90  HX  92
DURANGO        MOSUNNY   59  55  88 W3        30.38
GUAYMAS        SUNNY     88  75  66 CALM      29.86  HX  97
HERMOSILLO     MOSUNNY   86  75  70 CALM      29.95  HX  95
CD. JUAREZ     CLOUDY    68  66  94 NE12      30.22
OBREGON        MOSUNNY   81  73  78 W2        29.87

NORTHEASTERN MEXICO

CITY           SKY/WX    TMP DP  RH WIND       PRES   REMARKS
CHIHUAHUA      PTSUNNY   72  59  64 CALM      30.29
MATAMOROS      PTSUNNY   84  81  89 CALM      30.05  HX  98
MONCLOVA       SUNNY     79  66  65 CALM      30.07R
MONTERREY      SUNNY     79  68  69 E3        30.07R
NUEVO LAREDO   MOSUNNY   81  73  78 SE7       30.06
PIEDRAS NEGRAS SUNNY     79  70  73 SE5       30.09R
REYNOSA        MOSUNNY   79  73  83 SE7       30.04
SALTILLO       SUNNY     75  57  53 CALM      30.29S
TORREON        SUNNY     81  55  41 CALM      30.20R
CD. VICTORIA   MOSUNNY   81  66  61 SE7       30.04

WESTERN MEXICO

CITY           SKY/WX    TMP DP  RH WIND       PRES   REMARKS
AGUASCALIENTES MOSUNNY   61  52  72 N8        30.38
COLIMA         TSTM      72  72 100 SW6       30.07
DEL BAJIO      MOSUNNY   64  55  72 E3        30.37
GUADALAJARA    MOSUNNY   68  57  68 E3        30.27
MAZATLAN       MOSUNNY   75  70  83 NE7       29.89R
P. VALLARTA    CLOUDY    82  79  89 CALM      29.89R HX  93
URUAPAN        CLOUDY    68  61  77 CALM      30.23
ZACATECAS      MOSUNNY   57  45  62 CALM      30.40R

CENTRAL MEXICO

CITY           SKY/WX    TMP DP  RH WIND       PRES   REMARKS
CUERNAVACA     PTSUNNY   72  54  53 CALM      30.20R
MEXICO CITY    CLOUDY    59  52  77 NE8       30.42R
MORELIA        PTSUNNY   61  57  88 SW2       30.31
POZA RICA      PTSUNNY   81  75  83 CALM      30.03R
PUEBLA         MOSUNNY   57  52  82 N5        30.39R
QUERETARO      MOSUNNY   63  59  88 CALM      30.39R
S. LUIS POTOSI PTSUNNY   61  54  77 CALM      30.36R
TAMPICO        MOSUNNY   82  79  89 CALM      30.02R HX  93
TOLUCA         PTSUNNY   54  50  87 W3        30.47R FOG

SOUTHERN MEXICO

CITY           SKY/WX    TMP DP  RH WIND       PRES   REMARKS
ACAPULCO       PTSUNNY   82  79  89 N5        29.89R HX  93
B. DE HUATULCO CLOUDY    79  61  53 CALM      29.97
OAXACA         CLOUDY    63  52  67 NE5       30.30R
P. ESCONDIDO   PTSUNNY   79  70  73 NE8       29.99R
VERACRUZ       PTSUNNY   79  77  94 W5        30.01S
ZIHUATANEJO    PTSUNNY   82  77  83 CALM      29.89S HX  91

YUCATAN PENINSULA

CITY           SKY/WX    TMP DP  RH WIND       PRES   REMARKS
CAMPECHE       MOSUNNY   79  75  89 SE7       30.00R
CANCUN         PTSUNNY   86  79  79 E7        30.04R HX  99
CHETUMAL       MOSUNNY   84  75  74 CALM      30.01  HX  92
CD. DEL CARMEN PTSUNNY   84  75  74 SE10      30.02  HX  92
COZUMEL        MOSUNNY   82  77  83 CALM      30.04R HX  91
MERIDA         PTSUNNY   84  75  74 SE9       30.04R HX  92
MINATITLAN     MOSUNNY   81  68  65 CALM      29.95
TAPACHULA      MOSUNNY   84  77  79 CALM      29.93R HX  94
TUX. GUTIERREZ PTSUNNY   75  64  69 N5        30.03S
VILLAHERMOSA   SUNNY     81  73  78 E14       30.02R

CENTRAL AMERICA

CITY           SKY/WX    TMP DP  RH WIND       PRES   REMARKS
BELIZE CITY    PTSUNNY   84  77  79 E8        29.99R HX  94
MANAGUA        MOSUNNY   82  72  69 E12       29.86F

CARIBBEAN

CITY           SKY/WX    TMP DP  RH WIND       PRES   REMARKS
ARUBA          MOSUNNY   86  77  74 E23       29.94R HX  97
CURACAO        MOSUNNY   86  75  70 E13       29.97S HX  95
KINGSTON       MOSUNNY   84  72  65 NW9       30.00R
NASSAU         CLOUDY    86  77  74 S9        30.07R HX  97
SAN JUAN       MOSUNNY   86  75  70 E18G24    30.08R HX  95
SANTO DOMINGO  MOSUNNY   86  73  66 SE13      30.03S HX  93
ST. CROIX      MOSUNNY   88  72  58 E22G31    30.07R HX  94
ST. KITTS      MOSUNNY  N/A N/A N/A E15       30.06S
ST. MAARTEN    PTSUNNY   84  73  70 SE10      30.06S HX  91
ST. THOMAS     MOSUNNY   90  72  55 E17       30.07S HX  96

$$




USA.gov is the U.S. government's official web portal to all federal, state and local government web resources and services.